GFSNE_700_spd_069.txt.gz
Wind_Speed
38 38 41 23 19 21 29 31 33 35 38 37 40 39 40 36 36 38 40 36 39 41 40 40 39 40 41 42 43 44 45 46 48 49 47 48 52 54
37 37 37 21 30 30 30 32 35 35 35 41 46 41 43 37 37 43 40 41 43 39 41 41 41 41 42 43 45 46 48 49 50 52 53 51 51 48
40 39 37 24 35 34 35 36 37 38 37 41 37 44 43 40 45 40 41 42 41 39 40 41 42 43 43 45 45 47 49 52 54 56 56 55 54 55
45 36 28 28 35 36 36 39 38 34 35 43 44 45 41 44 42 42 41 40 40 40 41 41 42 43 43 43 45 48 51 55 58 60 61 59 53 52
33 27 26 33 36 37 39 37 38 45 42 44 44 40 44 47 43 44 42 41 42 41 41 41 41 41 40 42 45 48 53 57 58 59 59 57 55 48
29 36 34 33 35 33 39 34 43 45 47 43 44 44 49 45 45 43 41 43 41 39 40 39 40 41 41 44 47 51 55 58 58 56 55 53 51 44
35 34 36 37 38 37 37 45 41 43 46 43 43 47 46 45 45 44 45 45 43 40 42 40 42 43 44 48 50 53 55 55 54 51 48 46 41 38
36 37 40 40 38 38 41 43 43 44 43 43 46 46 44 44 45 45 45 45 47 47 51 46 44 45 47 49 51 54 53 52 50 46 41 35 32 31
43 43 43 40 37 42 43 46 44 45 45 46 46 45 44 45 45 43 44 48 50 50 50 50 46 48 50 52 54 53 52 49 45 42 36 29 26 29
45 42 43 40 42 45 47 46 46 46 47 47 46 46 45 44 42 45 51 52 52 48 46 51 48 49 51 53 54 51 50 49 43 38 29 30 32 28
43 42 40 42 45 47 46 46 46 48 48 46 44 44 44 43 48 54 51 49 52 48 44 49 50 52 53 55 51 48 45 43 39 30 26 25 22 21
46 44 43 43 46 45 46 47 49 48 46 45 44 45 43 50 53 49 49 52 50 48 45 49 49 52 57 53 49 44 37 30 31 24 22 21 18 18
47 41 42 44 44 46 48 48 47 47 46 45 42 46 54 54 50 52 54 49 46 45 43 47 49 48 51 50 42 35 28 24 24 20 16 19 18 18
38 40 43 44 46 47 47 48 47 46 45 48 53 56 54 51 53 53 46 45 44 43 42 44 47 47 45 42 37 27 20 18 10 6 12 14 14 16
40 43 45 46 46 49 51 48 48 49 50 51 50 50 53 54 49 45 43 44 43 41 40 40 43 43 40 37 29 25 19 16 9 11 13 14 15 17
44 44 46 49 52 52 50 46 44 44 45 46 48 50 49 46 44 44 44 44 43 41 39 38 40 40 36 30 25 24 16 15 13 14 16 16 17 18
46 47 45 44 43 42 42 43 43 44 45 47 46 45 45 45 45 45 44 44 43 42 39 38 37 35 32 25 24 19 18 17 17 19 19 17 17 19
40 40 41 42 43 42 41 42 43 44 44 44 45 45 46 46 46 44 44 44 43 40 39 36 35 32 28 26 29 24 20 21 21 22 21 17 17 19
40 41 42 42 40 40 41 42 43 43 44 45 46 47 48 47 46 45 44 42 41 40 37 34 32 29 26 25 22 19 17 20 22 23 19 18 17 17
41 41 39 39 39 40 41 43 44 45 46 47 48 48 47 47 45 43 42 41 39 37 35 31 29 28 26 25 24 17 16 18 20 19 18 18 16 16
37 37 37 38 40 42 44 45 47 48 49 50 49 49 47 46 44 42 41 39 37 35 33 29 26 27 25 26 26 22 20 19 20 17 16 18 16 14
35 37 39 42 45 46 48 50 51 52 51 51 50 47 45 43 41 40 38 37 36 34 31 29 25 25 26 28 28 22 20 20 17 17 17 16 14 14
40 43 46 48 50 51 52 53 52 51 49 48 46 43 41 39 38 37 36 34 33 31 29 26 23 23 24 28 24 21 21 18 16 16 16 15 13 13

GFSNE_700_spd_072.txt.gz
Wind_Speed
39 40 42 40 39 37 40 42 26 32 32 31 32 33 34 33 43 38 41 39 38 42 42 37 41 39 40 41 42 42 42 43 43 44 45 47 49 52
43 43 44 44 42 41 41 28 32 31 35 34 35 35 31 38 37 41 44 45 42 42 38 39 39 40 41 43 43 44 44 44 44 44 46 49 52 54
49 49 49 46 43 42 41 32 32 36 38 39 35 39 39 39 40 43 46 44 44 39 40 40 40 42 43 44 44 44 44 44 45 47 49 51 55 57
50 52 51 52 49 47 38 24 29 37 40 38 39 41 41 42 49 46 43 45 46 46 40 41 43 44 44 45 44 44 44 46 48 50 52 55 59 61
55 58 56 56 63 40 24 32 37 35 38 38 36 42 46 45 45 47 44 49 45 45 43 43 44 45 44 45 44 45 47 48 49 52 54 57 59 60
52 53 48 46 24 34 35 36 34 32 35 36 39 45 44 48 45 43 49 48 45 43 44 43 44 43 45 45 47 47 47 49 51 54 57 60 60 58
40 40 38 32 31 30 35 37 36 35 38 40 45 48 45 43 43 46 49 46 45 43 44 43 45 51 49 51 47 44 45 48 52 57 59 58 56 52
36 31 34 35 37 34 38 41 36 38 40 43 46 46 44 45 46 48 49 46 44 46 45 45 51 54 51 48 43 42 45 49 55 58 56 54 49 46
40 39 40 40 37 40 40 40 40 41 47 48 48 46 46 48 48 50 47 46 47 45 51 59 56 51 48 45 42 43 46 51 56 57 54 47 43 37
43 42 42 43 44 45 45 46 44 46 48 52 47 48 47 50 50 47 47 49 49 54 54 59 50 51 47 43 43 45 48 52 54 53 49 41 34 30
46 45 45 45 44 45 46 46 40 45 51 50 48 48 50 50 47 48 49 54 55 54 52 51 50 48 46 44 44 46 49 52 50 47 41 30 26 23
44 45 42 40 45 48 46 45 47 50 51 47 48 49 48 50 50 51 51 52 54 53 51 51 46 45 48 44 44 44 46 46 45 41 30 22 23 17
44 43 43 48 53 48 41 42 49 49 48 49 48 50 53 50 47 47 49 50 49 50 51 46 45 43 46 48 44 44 43 42 39 32 24 21 14 15
45 45 48 44 41 37 42 44 48 47 47 50 53 49 47 46 47 48 48 48 48 45 43 42 45 44 46 47 46 42 38 36 33 23 18 13 16 13
50 45 34 34 38 40 45 48 48 48 47 45 45 46 45 45 46 45 46 45 44 43 43 43 43 44 45 46 44 40 35 30 28 19 18 16 15 14
33 33 37 39 41 43 41 38 40 43 44 44 44 45 45 44 45 45 44 44 45 44 43 43 42 43 43 43 43 38 29 27 21 20 19 15 15 17
36 37 37 36 35 36 39 41 42 44 45 46 45 44 44 45 44 45 45 46 46 46 45 43 43 42 41 41 40 34 27 22 19 20 20 19 17 18
31 29 31 33 37 40 43 45 46 46 45 44 44 44 44 45 46 47 48 48 48 46 45 44 43 42 41 39 35 30 25 22 22 25 23 23 19 20
30 33 36 40 43 45 45 45 44 43 42 43 44 46 48 49 50 50 50 50 49 47 45 43 42 41 40 39 31 27 23 22 23 23 22 20 19 18
36 39 42 43 44 43 42 41 42 43 45 47 49 51 52 52 52 52 51 50 48 46 44 41 40 39 39 37 32 23 26 23 21 21 22 21 19 19
40 41 41 41 40 40 41 44 46 48 49 52 53 53 53 53 51 50 48 46 44 42 41 39 38 36 35 34 30 24 28 24 20 19 19 18 17 16
36 36 37 38 40 43 46 49 50 50 51 51 51 50 50 48 47 45 43 41 39 38 37 36 35 32 31 30 27 25 26 20 21 25 25 20 17 17
35 38 41 44 45 46 47 47 47 46 46 46 46 45 44 42 40 38 37 35 34 33 32 31 29 27 26 25 25 24 24 18 19 21 19 19 18 18

GFSNE_700_spd_075.txt.gz
Wind_Speed
41 42 38 38 37 36 37 38 39 41 43 37 33 31 32 31 31 33 33 35 38 37 39 38 38 40 38 39 40 40 40 41 42 44 44 46 46 46
46 46 42 41 41 41 41 42 44 44 46 40 33 34 32 34 36 36 35 41 39 42 42 41 38 41 41 40 40 41 42 43 45 47 47 47 47 47
45 48 46 45 45 46 47 48 47 45 50 52 45 39 30 35 40 41 42 41 43 45 44 42 42 44 43 42 41 43 43 45 47 49 50 51 49 50
46 47 47 48 50 51 52 53 54 55 54 44 38 44 35 43 43 40 43 45 44 47 46 41 46 45 44 42 43 44 44 47 52 51 52 52 51 50
45 47 49 49 50 51 55 62 63 58 58 53 35 36 43 40 46 44 43 46 46 47 46 46 49 46 44 44 44 45 46 52 52 55 55 51 50 50
46 50 48 48 52 58 59 60 59 42 29 34 40 36 45 43 42 46 48 48 46 45 49 49 48 45 44 44 44 44 51 53 53 53 51 49 50 52
48 54 53 52 48 46 42 30 29 31 36 34 42 42 45 43 45 46 51 46 46 47 49 50 48 47 45 46 46 50 52 47 49 48 47 48 50 55
50 51 42 44 47 43 38 34 36 40 45 37 42 44 45 50 48 48 47 47 46 48 50 48 46 47 45 51 51 52 46 46 44 45 47 49 52 59
40 41 40 46 48 44 44 42 40 45 46 43 40 47 50 48 45 44 49 47 46 47 49 50 47 48 50 50 52 46 44 40 41 45 47 49 55 56
39 41 43 47 48 49 44 45 43 45 53 48 51 59 48 37 39 47 49 47 49 47 44 52 51 51 51 52 47 43 39 37 42 46 47 50 54 51
48 48 50 51 52 47 47 44 43 54 50 52 51 40 39 43 43 48 48 50 50 49 46 51 51 52 50 50 45 40 39 39 43 46 48 51 49 40
45 47 48 50 50 49 50 47 49 54 55 52 46 44 43 42 44 49 52 50 50 49 48 51 50 47 51 46 42 40 41 41 43 46 47 46 40 28
46 48 49 50 49 47 48 52 55 54 46 39 39 43 44 47 48 48 51 49 47 48 46 50 49 46 44 45 42 42 43 42 43 44 42 41 30 22
47 48 48 45 45 48 52 55 44 39 38 41 44 43 45 47 48 49 48 46 47 47 45 45 45 42 43 45 46 44 42 41 41 40 37 28 21 18
48 45 45 47 50 46 41 34 36 40 41 42 41 43 46 46 47 48 48 47 47 45 44 43 43 44 46 48 48 46 44 41 38 36 31 23 22 20
42 42 43 44 38 35 35 37 39 40 40 41 41 43 45 47 46 46 47 46 45 44 44 45 46 47 47 47 48 45 42 41 38 31 25 22 22 22
36 32 29 29 31 35 37 37 37 38 40 41 43 45 46 45 44 44 44 45 46 47 48 49 49 49 49 48 46 42 42 41 36 27 23 21 22 22
28 29 31 34 34 33 34 35 38 39 41 43 44 43 42 42 43 45 47 49 52 53 53 53 52 51 49 47 44 43 40 39 31 23 21 23 25 23
29 31 31 30 30 32 35 38 40 41 41 40 40 41 44 46 49 51 53 54 55 55 54 52 50 47 47 47 43 39 38 36 27 25 21 24 24 22
26 26 28 31 34 37 38 39 39 40 41 42 45 48 51 53 54 54 54 54 54 53 51 48 44 40 41 46 41 37 27 31 26 26 24 21 26 23
27 30 33 35 36 36 37 38 39 43 46 49 50 51 51 51 51 51 51 50 49 46 45 42 39 39 39 39 39 36 29 27 29 28 26 18 23 22
32 33 34 34 35 37 40 43 45 46 47 47 47 47 47 47 47 46 44 43 40 38 37 35 34 33 33 33 33 31 26 24 33 30 25 21 24 20
31 32 35 37 40 41 41 41 42 42 42 43 43 43 42 41 39 37 35 33 31 30 29 29 28 28 27 26 26 25 22 19 28 31 28 17 23 21

GFSNE_700_spd_078.txt.gz
Wind_Speed
47 45 41 44 38 36 35 36 37 40 40 38 39 35 34 37 35 34 32 30 32 35 34 34 37 37 40 38 38 39 40 40 40 40 41 42 42 43
38 38 42 39 39 41 40 40 39 43 46 42 44 44 42 39 40 41 41 34 37 35 35 38 39 40 39 41 40 41 42 41 41 42 43 43 43 49
43 44 44 43 44 44 45 46 45 46 49 49 51 51 51 44 45 46 43 33 39 38 39 38 40 41 42 44 40 42 42 41 42 43 44 45 49 52
43 41 41 41 40 48 47 50 49 47 52 56 56 58 58 55 52 53 42 39 43 43 44 46 44 44 44 41 42 43 42 42 43 44 46 49 54 52
40 41 42 43 45 46 46 47 48 49 51 55 67 61 63 66 61 51 44 44 45 43 45 48 47 46 44 42 44 44 42 43 45 46 48 53 54 52
35 38 40 43 45 46 48 47 46 50 55 54 47 44 41 33 35 35 38 39 44 47 49 47 52 46 39 42 44 43 43 43 44 48 52 55 52 51
35 37 42 42 48 51 53 51 52 60 57 42 38 38 38 39 36 40 42 46 46 51 47 48 46 47 42 43 43 42 43 43 47 50 53 51 50 47
40 39 39 40 43 44 42 44 46 50 58 49 49 45 43 46 48 41 43 53 54 49 41 40 44 45 47 46 45 46 48 47 48 50 47 48 44 43
43 42 42 41 40 41 39 42 44 48 53 52 48 52 52 48 54 48 58 59 49 38 40 43 43 47 48 47 49 51 49 50 48 45 45 42 42 44
45 48 50 47 42 39 39 44 47 56 51 46 51 49 54 53 54 54 52 46 42 45 49 45 41 46 50 52 49 48 49 46 43 40 38 39 41 44
42 45 48 49 48 46 48 50 52 51 54 49 49 48 50 50 52 55 47 42 43 45 46 48 47 51 52 51 50 49 46 42 37 35 36 39 42 44
38 40 42 45 46 44 43 50 53 51 51 54 55 56 56 47 48 41 39 41 47 47 45 48 49 49 51 51 49 44 42 38 38 37 37 40 41 42
35 37 41 41 43 44 47 49 51 51 52 55 56 54 50 41 34 38 40 42 45 44 46 47 48 48 49 51 48 42 39 38 40 38 36 37 40 37
37 42 44 45 46 47 48 52 51 52 53 55 47 38 33 36 40 43 45 43 43 45 45 46 49 46 46 46 44 43 42 42 42 40 37 37 36 33
42 42 47 49 49 45 47 51 50 48 39 32 33 36 39 41 42 42 41 42 45 45 43 43 43 43 45 46 47 47 47 44 41 40 37 35 33 28
47 49 45 45 42 46 44 36 32 30 32 33 34 37 38 38 40 42 44 45 44 41 41 42 44 45 48 49 51 51 46 46 43 40 37 33 31 24
42 44 42 36 31 31 32 27 28 29 30 30 32 35 38 41 42 41 41 42 43 44 45 46 48 50 51 52 52 49 45 43 40 40 37 33 28 23
34 31 24 21 23 24 25 27 27 28 31 34 36 38 38 38 38 39 41 44 47 48 50 50 50 50 50 49 45 45 44 44 39 36 30 27 25 24
18 18 19 21 23 25 26 29 31 34 36 36 35 36 37 39 42 44 45 46 47 48 48 48 48 47 49 50 49 40 40 35 34 34 30 27 27 25
18 18 20 23 25 27 29 31 32 33 33 35 37 40 41 42 43 44 44 45 46 46 46 45 43 42 43 45 46 39 33 33 31 32 30 27 29 25
18 20 21 24 26 28 30 30 33 35 38 39 39 40 41 42 42 42 42 43 43 42 41 39 37 34 34 35 36 32 29 28 28 30 30 27 32 29
21 23 25 27 28 30 33 34 36 37 37 37 38 38 38 38 39 39 38 36 35 33 32 31 29 27 26 27 27 26 24 21 22 25 27 24 29 22
25 27 28 31 32 32 33 33 33 34 34 34 35 35 35 35 34 33 31 29 28 27 27 26 24 23 23 24 24 23 21 17 14 17 20 19 16 17

GFSNE_700_spd_084.txt.gz
Wind_Speed
42 41 41 42 47 50 46 43 44 44 39 32 35 33 37 34 30 34 37 38 37 37 38 39 38 39 39 41 41 41 36 38 39 39 40 39 39 39
51 45 44 47 52 45 43 41 43 43 50 40 37 35 35 37 36 36 37 40 41 43 45 47 52 43 43 44 45 45 42 41 41 45 42 42 42 40
45 45 48 48 44 42 42 45 49 44 50 46 41 40 41 40 44 44 42 44 44 43 48 43 47 51 46 50 50 47 43 43 47 47 49 46 46 41
35 39 41 48 48 48 47 42 47 47 47 50 44 49 47 46 46 51 45 45 44 44 47 46 38 41 46 43 44 48 44 47 50 50 49 48 44 43
33 35 36 41 40 40 42 43 44 46 48 52 53 47 47 44 47 49 49 48 48 50 50 40 37 44 40 43 41 45 47 54 55 53 53 51 43 45
31 30 31 34 33 36 41 42 44 49 51 54 52 50 50 51 51 55 49 46 47 48 42 42 37 41 40 42 41 48 53 56 61 59 47 46 49 49
34 34 34 34 33 35 40 38 42 46 44 48 49 48 54 50 49 43 46 50 46 47 45 42 44 47 46 48 53 55 51 59 61 49 43 43 47 49
37 38 38 38 38 38 40 41 43 45 48 51 51 50 46 47 43 52 49 46 48 53 43 42 44 51 48 52 54 53 57 58 55 46 44 45 48 52
40 41 41 41 41 42 43 45 47 49 51 53 54 53 50 49 45 44 46 45 49 52 48 48 50 53 51 53 54 56 57 56 55 50 49 51 53 53
43 43 45 44 45 46 47 48 50 52 52 53 55 55 54 55 59 55 57 59 55 50 52 55 59 54 53 54 53 57 55 53 55 52 52 54 53 54
44 45 45 45 45 46 48 49 50 52 51 52 52 56 59 57 62 65 67 62 62 61 54 59 52 55 52 50 51 51 50 50 52 55 54 54 54 55
44 48 44 45 45 42 42 45 48 49 55 62 56 61 65 63 66 70 57 57 58 49 49 50 48 46 44 43 44 45 47 50 51 52 53 53 54 55
48 51 48 46 43 44 48 54 58 54 60 63 66 69 69 70 59 61 63 61 55 44 43 40 37 36 39 41 43 46 48 49 52 52 51 52 53 54
47 53 49 44 50 54 57 56 59 63 64 65 70 74 73 70 61 48 36 36 33 35 36 33 35 36 39 43 46 46 47 50 51 50 51 52 54 54
53 52 54 54 61 62 61 60 65 72 73 77 72 65 50 41 41 33 29 26 28 29 31 34 38 41 43 45 48 48 50 52 51 53 56 57 59 58
61 52 65 67 77 70 69 72 76 66 52 38 35 28 25 21 21 23 25 25 28 31 34 36 39 42 44 46 48 51 54 56 57 57 57 57 56 55
57 57 62 66 64 60 39 30 21 21 19 18 16 16 18 19 23 24 26 28 31 34 36 38 41 42 44 46 48 51 52 55 56 58 60 61 59 54
40 32 28 24 25 22 19 17 14 13 13 16 17 19 22 23 26 27 29 32 35 35 36 37 39 40 42 43 47 49 50 52 53 55 55 57 56 51
11 10 6 6 5 7 9 10 11 13 16 18 21 22 25 26 28 30 31 32 33 34 37 38 39 40 41 41 39 39 45 46 48 48 49 50 51 47
2 3 4 6 7 8 11 14 15 18 19 21 23 25 26 26 27 29 30 31 32 33 33 35 36 37 38 39 39 34 34 38 39 41 40 38 35 34
8 6 8 11 13 16 15 16 18 20 22 23 24 24 25 27 27 28 29 29 29 29 29 30 31 31 32 32 32 31 29 31 35 37 36 35 30 22
13 14 14 15 16 19 21 22 23 22 22 22 23 23 23 24 25 25 25 25 24 25 25 25 25 25 26 28 29 30 29 27 27 28 29 32 29 14
17 19 19 18 18 18 18 19 19 20 21 21 22 22 21 21 21 21 21 21 21 21 20 21 21 23 25 27 28 29 29 27 26 22 17 26 20 5

GFSNE_700_spd_087.txt.gz
Wind_Speed
42 29 33 34 38 33 35 36 38 43 42 40 42 39 34 33 30 34 38 36 38 38 40 40 38 39 38 38 42 43 48 43 45 47 45 42 43 42
38 36 40 42 43 41 42 40 42 46 50 50 42 34 34 36 33 38 34 39 44 41 43 42 43 46 44 42 46 48 50 47 51 51 49 47 47 50
39 42 42 46 49 49 45 45 47 48 55 53 42 39 33 37 38 35 38 41 44 44 47 50 48 50 46 47 48 38 46 58 51 52 54 54 49 55
39 42 45 48 46 47 46 49 51 50 45 43 39 41 46 40 41 42 44 51 52 49 49 47 46 45 50 49 48 38 43 48 45 49 51 52 52 54
34 35 38 43 41 41 43 44 46 48 50 51 49 48 45 46 48 50 51 47 48 48 51 53 45 50 45 46 45 44 46 47 48 48 49 49 53 60
32 34 35 36 37 39 41 41 45 48 50 54 52 47 50 50 50 53 51 47 47 47 49 51 53 49 50 45 43 46 47 49 48 52 50 51 55 59
35 35 37 38 38 39 43 40 43 46 48 53 57 56 56 56 51 50 51 44 50 47 49 48 46 51 48 45 46 44 50 54 51 52 54 56 57 60
39 39 40 41 40 41 44 43 46 48 48 50 53 56 55 54 53 49 49 51 49 48 50 48 48 45 49 47 50 47 53 51 49 52 55 58 57 56
44 44 45 45 44 45 46 48 48 50 52 51 56 56 57 55 56 58 57 54 55 57 51 55 50 50 51 57 53 52 56 53 54 54 56 57 57 57
46 48 50 50 50 50 50 52 52 53 54 56 58 59 60 60 60 60 59 57 58 59 59 61 62 65 64 58 61 59 53 50 53 58 57 58 58 57
41 44 45 48 51 53 55 55 56 56 56 57 59 60 59 59 60 60 62 61 60 62 65 70 64 66 64 60 61 58 56 54 54 53 54 56 56 57
44 39 41 42 44 46 53 55 58 59 55 60 60 62 61 61 62 60 59 74 68 74 76 68 71 71 65 61 53 50 50 50 50 51 51 52 53 56
56 56 50 48 50 52 48 45 53 51 51 51 55 57 63 65 67 71 67 66 68 73 73 71 71 55 51 49 46 45 44 45 46 47 50 53 55 58
48 52 61 62 61 52 54 58 54 59 61 57 59 64 66 68 73 72 68 69 66 60 57 44 41 39 37 36 38 39 41 44 48 51 52 55 56 57
52 56 59 61 58 56 63 67 66 63 55 74 67 70 73 65 60 54 45 37 34 33 32 32 30 30 30 33 37 41 43 45 49 50 53 55 56 56
54 64 63 64 57 62 53 57 65 68 59 53 40 36 37 32 29 27 25 23 23 25 27 29 31 33 35 38 41 44 45 48 52 52 53 55 56 57
47 57 48 49 52 58 50 53 48 39 32 28 26 24 22 20 19 20 22 23 25 28 30 31 33 36 38 40 40 42 45 47 49 52 53 55 55 55
30 25 28 31 28 26 21 13 13 14 15 15 15 16 17 18 20 21 24 26 28 31 33 33 34 35 35 39 39 41 43 45 47 49 50 52 53 50
8 7 6 7 7 4 5 6 6 9 12 14 17 18 19 20 22 25 28 28 29 28 30 31 32 32 33 33 34 39 41 41 43 43 43 45 48 45
6 6 5 4 5 6 9 11 13 16 16 18 20 20 23 26 27 26 26 26 27 27 28 28 29 30 31 31 30 27 33 37 39 40 40 41 40 38
10 10 10 11 12 14 15 16 18 19 21 24 24 23 23 22 22 23 23 23 23 24 25 26 27 27 28 29 29 29 28 32 35 38 36 35 32 23
15 15 16 17 18 21 22 24 24 23 21 20 20 21 21 22 22 22 22 22 22 22 23 23 24 25 26 27 27 29 28 27 28 29 29 33 31 24
20 19 19 19 19 19 19 19 19 19 19 20 20 20 20 20 20 20 20 20 21 21 21 22 22 23 23 23 24 25 26 26 25 20 15 21 23 17

GFSNE_700_spd_090.txt.gz
Wind_Speed
31 40 39 41 32 40 44 45 43 37 38 33 32 34 36 41 36 36 32 28 33 42 45 44 44 43 43 45 45 45 41 43 43 43 43 47 44 46
37 36 42 44 46 44 35 38 35 39 40 35 35 40 41 43 41 41 35 32 31 35 32 43 47 46 48 47 49 51 51 52 48 47 44 45 49 49
36 42 41 38 45 36 42 40 39 47 47 39 38 39 44 48 51 36 35 38 39 38 37 37 41 47 48 50 57 50 51 50 51 53 48 43 47 55
33 35 36 36 38 39 39 42 45 44 45 47 45 50 48 44 39 38 40 45 39 41 44 44 46 46 51 51 51 52 51 50 51 52 49 48 47 48
30 32 32 32 37 38 42 43 44 46 46 47 49 45 46 46 47 45 49 48 46 47 51 48 52 52 54 54 53 56 55 52 55 49 49 52 52 49
30 32 34 36 37 39 41 42 47 48 47 51 52 49 50 52 53 55 55 53 56 52 52 50 48 49 50 50 56 58 56 52 54 50 51 49 53 52
33 34 36 37 37 40 44 43 46 49 50 52 54 51 49 48 49 47 52 48 51 48 48 45 44 48 50 53 55 56 49 51 54 52 57 49 50 57
37 37 38 39 39 42 45 45 49 52 52 53 55 56 53 51 50 53 52 53 55 49 52 53 50 50 52 51 54 54 50 45 55 52 56 55 54 56
39 41 44 45 44 45 46 48 50 51 54 54 58 58 58 56 55 56 58 57 58 57 57 58 58 57 58 57 57 59 63 64 60 64 56 56 59 62
42 42 40 42 47 51 53 55 55 55 56 56 60 61 62 62 61 60 60 59 60 60 60 61 61 59 60 61 61 60 68 63 67 65 64 63 62 63
42 40 43 46 46 45 45 52 56 59 59 59 62 64 65 63 62 61 62 59 61 62 63 64 65 64 63 67 73 68 74 72 73 72 63 61 60 56
51 51 50 51 49 53 50 51 49 50 54 54 55 64 65 66 62 61 63 63 64 68 71 70 72 72 71 74 76 72 68 68 65 57 52 50 49 50
49 50 53 53 56 58 59 59 65 60 62 61 57 67 63 65 64 64 63 61 65 69 70 71 66 66 66 62 60 56 49 46 45 44 43 44 46 47
48 50 52 51 53 56 58 57 63 59 56 64 68 68 72 68 69 73 65 67 66 70 58 58 51 48 44 41 38 38 37 38 38 39 40 42 45 47
41 48 51 54 56 57 57 61 63 62 59 56 64 66 55 61 63 61 64 62 50 36 33 34 34 33 32 31 32 33 34 37 39 41 43 46 48 49
36 39 43 50 55 61 63 59 55 55 55 44 46 39 40 42 39 37 32 29 27 25 24 24 25 25 26 29 31 34 37 39 42 43 45 47 47 48
25 31 38 46 43 43 46 34 37 33 27 32 24 21 20 19 18 18 17 18 18 19 22 24 26 28 30 32 35 37 39 39 41 42 42 44 44 46
16 15 17 21 23 21 19 17 14 12 11 11 12 12 13 14 16 18 20 21 21 23 26 27 30 31 32 32 33 35 37 38 38 39 41 44 44 42
12 12 11 10 9 11 13 11 10 10 11 13 14 15 17 20 22 23 24 25 27 28 29 29 28 28 28 28 30 33 33 35 36 35 38 40 43 41
14 14 13 12 12 12 13 14 15 17 18 19 20 22 23 24 25 26 26 25 24 23 23 24 24 25 25 25 24 27 34 34 34 33 35 37 39 39
15 15 15 16 17 17 18 19 21 22 24 25 25 23 22 21 21 20 21 21 22 22 22 22 23 23 23 24 24 22 24 30 34 35 37 39 35 23
17 19 19 20 20 21 21 21 20 20 21 21 21 21 20 20 20 21 21 21 21 21 21 21 21 21 21 22 23 24 22 21 24 26 32 33 30 27
22 21 21 21 20 20 20 20 20 20 20 20 20 20 20 20 20 20 20 19 20 20 20 20 21 21 21 21 22 22 22 22 18 10 14 23 23 18

GFSNE_700_spd_093.txt.gz
Wind_Speed
16 22 32 37 39 33 32 37 40 39 44 45 45 41 39 36 34 37 38 34 30 33 39 39 51 45 42 44 44 44 45 47 46 46 46 49 48 48
16 24 28 22 34 38 38 40 48 42 45 42 39 39 36 35 36 41 43 41 37 38 39 33 33 43 41 47 53 51 53 50 53 50 53 53 52 53
22 22 30 33 32 36 38 46 45 47 49 39 36 34 36 38 38 41 39 43 47 47 44 40 42 41 44 40 40 48 51 51 54 53 53 53 54 50
24 26 26 30 37 43 42 36 40 38 37 39 40 41 41 37 40 45 43 49 51 46 45 44 46 44 48 46 47 45 47 49 55 59 58 58 58 51
28 30 31 33 36 36 38 39 38 39 42 44 45 42 44 45 47 46 45 47 47 49 47 48 50 50 53 53 59 52 55 56 54 55 57 56 57 54
29 30 31 31 32 34 36 37 38 41 42 46 44 43 46 45 49 46 47 47 52 54 54 56 57 59 56 58 61 60 53 56 58 56 57 59 55 52
28 29 30 32 33 35 39 38 42 45 46 49 52 49 47 48 51 51 55 49 51 51 51 51 50 50 54 55 55 55 56 57 55 56 54 57 53 51
31 32 33 34 34 37 40 40 43 46 47 49 51 53 53 52 53 55 56 56 57 53 54 55 53 54 53 53 53 53 56 56 59 60 60 58 57 53
33 34 35 36 37 40 42 44 45 46 47 49 55 57 58 55 55 56 58 59 60 57 58 62 62 61 60 60 58 57 57 57 59 61 63 62 63 67
30 30 32 34 35 36 37 36 34 36 40 40 45 49 53 59 63 63 62 62 62 61 62 63 64 65 67 66 66 64 63 62 59 61 64 65 67 68
42 44 53 51 46 44 44 45 49 49 53 54 52 53 54 53 53 56 58 59 62 66 68 66 66 67 67 75 71 71 69 70 68 73 71 69 69 72
45 48 51 52 53 53 54 54 56 54 55 56 56 58 64 64 67 60 60 57 59 65 68 72 71 73 74 73 74 76 75 72 71 69 66 63 63 59
42 45 49 50 51 51 49 50 52 55 54 59 59 64 60 64 65 67 66 60 62 67 74 70 62 59 61 60 58 56 53 53 52 51 50 47 45 44
37 38 40 43 45 48 51 51 51 55 59 61 59 64 57 57 53 56 53 55 56 57 56 54 52 44 41 41 41 41 39 38 37 38 38 38 38 40
32 34 36 38 41 41 39 39 43 48 56 56 53 58 49 48 45 46 44 42 43 45 37 33 29 28 28 28 27 28 29 30 31 32 34 36 38 41
27 28 30 32 35 38 38 36 34 36 40 41 46 44 39 34 31 29 27 24 24 23 23 22 21 21 20 22 24 26 29 30 31 33 36 39 40 42
24 25 25 26 27 28 29 28 27 26 22 21 21 21 20 19 17 16 16 18 17 18 21 22 23 25 26 27 28 29 31 32 33 34 36 37 37 39
23 22 21 21 21 21 21 19 17 15 14 13 12 13 14 15 16 17 18 20 21 22 24 26 26 27 28 29 30 30 30 30 30 31 34 36 34 36
19 18 17 17 17 17 16 16 15 15 15 15 16 16 18 19 20 22 24 25 25 25 25 24 24 23 24 25 26 26 26 27 28 30 33 34 35 33
16 15 16 16 16 16 16 17 17 18 19 19 20 22 23 23 23 22 22 22 22 21 21 21 22 22 22 22 23 27 27 27 28 28 31 29 31 32
17 17 18 18 19 19 20 21 21 20 20 20 20 20 19 19 19 19 19 19 20 20 20 21 21 21 21 21 20 22 26 28 30 31 31 28 26 22
20 21 22 22 21 21 20 20 19 20 20 19 19 19 19 19 19 19 19 19 19 19 20 20 20 20 21 21 20 19 18 21 26 30 28 24 23 16
20 20 19 19 19 19 19 19 19 19 18 19 19 19 19 19 19 19 19 20 20 20 20 20 20 20 19 20 20 19 18 18 17 17 17 12 13 13

GFSNE_700_spd_096.txt.gz
Wind_Speed
16 20 34 38 39 38 39 43 43 43 41 37 37 38 39 42 39 40 41 37 37 38 41 43 46 47 46 50 51 49 49 51 47 47 49 49 51 49
18 18 26 29 35 42 41 41 38 38 38 37 33 40 40 38 40 45 43 38 44 44 42 45 37 37 43 44 40 41 51 56 54 55 57 54 57 54
23 23 22 22 29 26 29 33 38 42 42 42 45 43 50 44 36 33 34 39 42 48 48 52 51 46 46 48 48 46 46 50 47 47 52 56 57 57
22 20 21 21 24 25 27 28 31 40 42 42 38 40 42 35 34 37 38 38 41 45 48 47 50 50 52 50 47 49 50 51 51 55 53 55 56 55
19 22 21 22 26 26 26 30 33 37 39 41 40 38 37 35 37 39 40 41 47 49 50 51 50 49 51 50 51 54 56 56 58 63 61 61 64 65
24 24 23 25 25 27 27 28 32 34 36 38 37 37 38 34 39 39 40 41 40 40 43 45 46 50 50 53 55 58 61 62 63 62 61 65 67 64
21 23 24 26 27 29 30 30 34 37 39 41 43 42 41 44 46 46 47 45 48 45 49 50 49 48 50 51 54 56 56 58 60 63 66 65 63 63
26 27 28 30 31 33 35 36 38 40 40 42 45 48 48 45 44 46 47 52 56 52 54 57 53 53 55 58 59 57 54 56 59 63 63 63 63 63
29 30 31 32 33 35 37 39 40 41 43 43 46 46 46 45 48 47 51 57 58 55 55 57 58 60 63 62 63 61 60 59 59 59 61 62 62 63
31 31 30 30 33 34 35 35 34 36 41 44 45 45 45 48 49 51 53 57 53 54 56 61 63 65 66 66 68 68 67 67 65 64 64 64 66 66
36 37 38 40 42 44 44 46 47 49 51 49 50 53 56 56 55 54 57 57 59 56 54 58 55 61 67 70 69 70 70 70 71 71 69 71 71 74
38 41 43 45 47 49 49 50 50 51 55 57 58 55 57 59 61 62 61 64 63 67 66 65 63 62 59 60 62 60 60 60 64 66 66 66 64 62
34 36 38 39 41 43 45 46 48 50 51 53 55 57 56 55 58 62 65 60 60 61 58 58 56 56 55 55 56 51 52 53 53 52 50 49 48 48
32 34 35 35 35 36 37 38 39 41 43 45 49 55 58 64 61 60 57 58 53 51 49 49 48 44 42 41 41 42 42 41 41 41 40 39 38 37
30 32 34 36 37 37 37 37 37 37 37 37 39 40 42 44 46 46 45 43 41 39 36 34 32 29 28 27 27 27 28 28 29 31 31 32 34 35
28 30 32 33 35 36 36 36 35 34 32 31 29 30 31 31 31 31 30 28 26 25 25 24 24 23 23 24 25 26 27 28 29 31 32 34 36 37
26 27 28 29 30 30 31 30 28 27 25 24 23 23 23 23 23 23 22 22 23 23 23 23 24 25 26 27 28 28 30 31 32 32 32 31 32 33
24 24 24 25 25 25 25 25 24 24 23 22 21 20 20 20 20 21 22 24 25 26 27 28 27 27 26 26 25 25 26 26 28 29 30 28 28 33
23 23 23 23 24 24 25 25 26 25 25 25 25 24 25 26 26 27 27 28 28 28 27 26 25 24 24 24 24 24 24 25 26 26 26 28 28 29
21 21 23 23 24 24 25 25 26 26 27 27 27 27 27 26 25 25 25 24 24 23 23 23 23 23 23 23 24 24 24 24 24 24 23 24 27 29
22 22 23 23 24 24 25 26 26 26 26 25 25 24 24 24 24 23 23 23 23 23 23 22 23 22 22 22 22 23 24 24 24 23 22 22 23 24
24 24 25 25 26 26 25 25 24 23 23 23 22 22 23 23 22 22 21 22 22 22 23 22 22 21 20 20 20 20 22 23 23 22 20 18 17 14
25 25 25 24 23 23 22 22 22 22 22 21 21 21 21 22 22 22 22 22 22 22 22 21 21 20 20 19 18 17 18 18 19 20 16 8 8 4

GFSNE_700_spd_099.txt.gz
Wind_Speed
29 27 23 25 31 31 31 34 34 37 37 30 30 36 34 37 38 39 41 40 40 41 39 36 35 38 39 41 42 43 45 45 46 47 48 51 50 49
20 20 20 23 31 33 37 32 40 37 36 32 32 36 32 34 36 39 39 39 36 38 40 37 40 43 43 45 44 41 41 42 45 49 46 45 47 52
23 26 23 20 25 29 35 40 38 38 38 33 37 36 34 27 32 37 42 39 39 36 32 37 39 40 43 45 48 50 49 49 52 48 52 52 50 50
24 27 25 20 23 26 28 26 27 29 35 33 29 30 35 34 34 37 36 38 39 40 40 38 38 40 43 47 51 49 48 48 53 55 55 55 55 54
24 23 22 25 25 22 24 27 29 30 28 31 29 28 27 29 32 33 33 33 35 35 35 35 34 37 42 46 49 51 52 54 54 56 57 56 59 61
24 24 22 24 27 24 25 26 27 28 29 30 29 30 30 30 35 36 36 36 38 39 41 40 40 40 42 45 48 50 52 56 55 55 56 58 60 62
26 27 26 26 28 26 27 29 26 27 33 35 36 35 34 35 37 38 42 41 43 43 44 43 43 45 50 52 53 51 50 51 52 53 56 58 62 65
24 26 26 26 27 28 29 28 29 32 36 37 39 39 39 40 40 44 45 44 43 42 48 49 49 50 55 60 58 56 56 54 53 56 58 57 57 59
29 28 27 30 29 29 29 30 30 33 37 38 42 43 44 47 49 49 44 43 39 42 47 53 54 56 55 54 57 56 53 56 60 55 61 65 65 65
28 29 30 31 32 33 33 34 36 36 36 41 46 45 45 47 48 43 46 48 53 52 54 57 54 57 52 59 58 56 60 64 58 61 64 65 61 65
34 34 36 36 37 37 37 37 41 42 44 44 44 50 52 53 53 54 57 57 60 56 57 62 59 57 61 62 63 61 59 58 58 57 55 60 61 62
37 36 37 38 39 40 42 44 45 47 47 47 50 53 55 57 56 56 56 56 57 61 60 53 59 55 54 56 56 57 57 57 59 59 58 57 55 54
31 32 34 34 35 36 37 38 39 40 43 45 46 47 48 50 53 56 59 60 63 62 62 63 61 59 55 52 50 49 50 50 50 49 48 47 46 45
28 30 31 31 32 32 33 33 34 36 38 39 41 42 43 45 47 48 50 49 47 47 46 43 42 41 41 40 40 38 37 37 37 36 35 35 34 34
27 28 29 29 29 30 30 31 31 32 33 34 36 38 39 40 40 40 39 38 37 35 32 30 29 29 29 29 30 29 30 30 30 30 30 32 33 35
25 25 26 27 28 29 30 30 31 31 32 33 32 32 32 32 33 33 32 32 32 30 29 27 26 26 26 27 28 29 30 32 33 33 34 35 36 36
24 25 26 26 27 28 29 29 29 28 28 28 28 28 28 28 29 29 29 29 29 29 29 29 30 30 31 31 31 31 32 32 32 31 31 31 33 35
23 24 25 26 26 27 27 27 27 28 27 27 27 27 27 27 28 28 28 28 29 30 31 31 30 30 29 28 28 28 29 29 29 30 30 30 31 34
23 24 24 25 25 26 27 26 26 26 27 27 27 27 27 27 27 27 27 28 29 29 29 29 28 27 28 27 28 27 27 27 27 27 28 30 29 29
23 24 24 25 25 25 26 26 26 27 27 27 27 28 28 28 28 28 27 27 28 27 28 28 28 28 27 27 27 28 26 26 26 24 24 26 27 27
24 25 25 26 27 27 28 28 29 29 29 29 28 28 27 28 28 28 27 27 27 27 27 26 26 26 26 27 26 26 26 24 24 22 22 21 21 21
26 27 28 29 29 29 29 28 28 27 27 27 27 27 27 26 26 26 26 26 26 26 26 26 25 25 25 25 25 25 24 22 20 19 18 17 15 15
27 28 28 28 28 27 27 27 27 27 27 26 26 25 26 26 26 27 27 27 26 26 25 24 24 23 23 22 22 22 22 21 19 15 12 9 9 8

GFSNE_700_spd_102.txt.gz
Wind_Speed
34 34 33 33 39 38 39 41 37 27 24 27 30 25 26 27 31 31 32 32 32 30 31 32 32 36 38 38 36 35 36 36 36 37 36 35 40 42
34 36 37 35 28 26 23 27 29 29 35 31 32 31 29 22 20 23 25 27 26 30 33 35 37 36 33 35 36 37 39 38 37 39 43 45 45 46
30 23 19 20 21 24 27 29 29 31 29 25 28 33 34 30 28 32 35 24 33 28 30 31 33 33 36 34 34 33 35 37 40 44 47 43 45 47
25 25 27 27 24 21 20 25 32 31 30 30 31 33 33 29 31 32 32 32 29 27 25 23 25 29 30 31 34 34 36 39 42 44 46 48 51 53
24 29 24 25 26 21 22 25 24 25 26 31 31 30 29 28 28 30 30 29 30 31 32 32 31 33 35 36 37 37 38 40 42 43 47 48 51 51
25 22 26 27 25 26 23 21 23 26 27 29 32 29 29 26 29 29 29 31 32 31 32 33 36 39 39 39 39 39 40 43 46 47 50 48 50 52
26 26 25 24 22 24 25 25 26 26 26 29 33 32 29 30 32 29 34 34 35 36 36 36 33 40 40 43 45 46 48 45 48 52 54 50 51 51
25 26 27 28 30 29 27 29 30 34 36 37 35 32 32 38 32 35 38 40 40 40 36 44 42 42 43 48 49 53 54 55 58 51 52 54 52 49
28 29 30 31 31 30 30 33 34 37 36 31 32 33 36 39 40 40 45 48 43 45 41 43 45 47 50 50 52 59 56 56 55 55 56 54 54 58
33 32 33 33 33 32 32 33 29 30 31 35 39 43 44 43 43 43 45 44 44 50 50 49 53 55 55 56 57 54 61 57 54 55 57 56 58 60
34 34 34 33 30 28 30 34 35 37 41 44 42 43 44 45 46 52 51 50 52 52 56 50 52 55 57 52 53 60 60 65 64 59 58 57 56 57
37 36 37 33 38 35 38 40 37 37 39 42 44 47 50 51 50 50 50 49 47 46 48 49 49 49 50 49 49 48 47 47 46 47 46 46 46 46
28 30 30 33 33 32 32 32 34 36 39 39 40 41 41 41 41 41 41 42 42 43 43 44 43 42 41 42 40 39 40 40 39 37 38 38 38 37
23 23 25 25 27 27 29 31 32 33 35 35 36 36 36 37 38 39 39 39 38 36 35 35 35 35 35 34 34 33 33 32 32 32 32 33 34 34
21 21 22 24 25 27 27 27 28 29 30 30 31 32 32 33 33 34 34 34 33 32 31 31 31 31 31 32 33 31 32 32 31 32 34 35 35 36
18 19 21 22 23 24 23 24 25 25 26 27 28 28 28 29 30 31 31 31 31 31 31 31 31 30 30 31 32 32 32 31 32 33 33 33 34 34
19 20 21 21 22 24 25 25 25 25 26 26 27 28 29 29 30 30 31 31 32 32 32 31 31 32 32 31 30 30 30 29 30 31 30 30 31 33
20 21 22 23 25 25 24 25 26 26 26 26 27 27 28 28 28 28 29 29 30 30 30 29 29 30 28 27 26 28 28 28 28 29 29 29 27 30
20 22 22 23 24 24 25 25 26 27 27 27 27 28 27 27 27 27 27 27 27 28 27 26 26 26 26 27 27 25 26 27 27 27 28 27 27 27
22 23 23 23 24 25 26 26 26 27 28 27 28 28 28 27 27 26 26 27 26 27 27 26 25 25 26 27 26 27 27 26 26 25 24 24 25 24
23 23 23 24 24 25 26 26 27 27 27 27 27 27 27 26 26 26 25 25 25 26 26 27 26 26 27 28 27 26 26 24 24 23 21 19 18 17
23 24 24 25 26 26 26 26 26 26 26 26 26 26 26 26 26 25 25 25 25 26 26 26 26 26 27 26 25 25 24 20 21 20 19 17 13 10
25 25 25 25 25 26 25 26 26 25 26 26 26 25 25 25 26 25 26 27 26 25 26 26 25 25 25 24 24 24 23 20 16 14 14 12 8 5

GFSNE_700_spd_108.txt.gz
Wind_Speed
34 33 39 47 36 44 40 31 26 27 30 23 24 20 22 23 21 22 25 24 24 24 23 24 27 30 32 30 30 30 31 29 30 32 31 30 30 31
28 35 42 42 38 44 31 33 24 21 22 23 22 23 28 24 21 17 19 21 23 24 27 27 25 27 27 26 26 28 32 30 31 30 31 30 31 31
29 31 34 37 47 37 37 38 32 27 26 31 32 29 23 28 26 23 23 18 20 23 22 28 26 29 28 26 31 34 31 31 31 31 32 32 32 33
30 34 28 39 42 36 39 37 31 32 29 33 34 31 30 30 27 27 22 23 23 23 26 28 28 30 31 33 31 32 32 33 33 34 34 38 40 44
22 23 32 35 40 34 38 31 32 28 36 32 32 32 32 32 35 30 30 26 26 28 27 29 28 31 30 31 29 32 38 35 35 37 40 41 42 46
20 24 25 29 29 31 28 22 23 27 31 32 32 30 35 34 35 34 29 28 29 31 29 32 31 33 35 36 35 41 36 39 37 41 39 37 42 48
21 30 24 30 29 28 30 28 32 33 34 30 28 31 33 33 33 30 32 30 30 32 30 31 32 37 30 31 35 40 38 44 47 44 43 46 46 48
24 30 30 24 28 27 31 33 33 30 31 33 35 34 30 30 31 32 31 31 34 34 35 34 41 40 42 43 47 51 46 46 46 48 50 53 51 52
32 28 35 34 33 36 37 30 31 36 35 33 34 33 31 31 32 34 35 38 38 37 39 41 43 43 42 46 42 44 45 44 53 52 52 54 54 53
33 33 32 35 30 33 34 35 33 33 35 34 34 36 35 34 37 39 40 39 40 41 46 47 46 48 48 43 48 54 53 49 48 46 46 48 47 46
33 34 37 35 34 38 38 33 28 30 30 31 32 35 39 40 41 40 36 38 45 45 40 44 44 43 51 54 48 46 44 44 43 41 42 42 43 44
36 38 36 37 34 34 39 38 38 38 41 42 43 46 44 39 40 41 43 48 48 40 39 44 47 45 44 42 40 41 41 41 40 41 41 41 42 42
37 35 36 33 37 43 41 40 41 43 45 44 43 46 44 43 46 41 43 39 41 41 41 39 35 35 36 37 36 38 39 38 38 40 41 41 41 42
45 39 38 36 42 42 42 47 48 48 50 46 38 29 28 30 30 33 31 31 31 31 31 30 30 31 32 33 34 36 36 37 38 39 39 40 41 40
32 31 33 33 37 38 40 35 32 21 21 19 23 25 27 26 27 26 25 25 25 26 28 29 30 31 32 33 34 35 36 36 36 36 37 38 38 37
8 10 10 9 9 11 13 13 12 18 19 19 20 22 24 24 24 24 25 27 26 27 29 30 31 31 31 32 33 33 34 34 35 35 35 36 37 36
8 9 10 11 13 14 13 13 13 17 19 19 22 25 27 25 24 25 26 27 27 28 29 29 30 31 31 32 33 33 33 34 34 33 33 33 35 33
16 16 18 19 19 20 21 22 23 23 24 24 24 24 24 25 26 27 27 26 26 28 29 29 30 31 32 32 31 32 32 32 32 32 32 31 33 33
15 15 16 17 18 19 19 19 20 21 21 21 21 22 23 24 25 26 27 28 27 28 29 30 31 31 31 30 30 30 30 31 31 31 32 33 32 30
15 15 15 15 15 16 16 17 18 20 21 21 22 22 23 24 26 27 28 28 28 27 29 29 29 29 29 29 30 31 31 30 30 30 30 31 32 28
16 16 17 17 17 18 19 20 21 22 23 23 23 23 23 25 25 26 27 28 29 29 28 28 28 29 30 29 29 28 31 30 30 30 28 26 26 26
18 18 18 18 18 19 20 20 21 22 22 23 23 24 24 26 26 27 26 27 28 28 28 28 28 29 29 29 29 29 28 27 28 29 28 24 22 21
19 19 19 19 20 21 21 21 22 22 23 24 24 24 25 25 25 25 25 25 27 28 28 28 28 29 29 29 29 28 27 25 25 24 26 23 20 19

GFSNE_700_spd_111.txt.gz
Wind_Speed
35 33 42 39 38 44 40 36 40 44 41 33 38 28 28 27 24 24 24 23 24 25 28 27 26 26 26 26 29 31 35 31 30 32 30 31 30 34
21 28 27 28 37 40 36 39 41 45 36 28 39 36 27 29 28 28 28 30 34 29 26 24 25 26 29 32 34 34 34 34 33 31 36 35 36 36
18 19 28 29 31 38 42 42 44 42 31 24 22 25 30 31 34 32 32 26 24 28 27 26 27 33 36 36 33 34 35 32 34 37 36 34 33 33
17 18 30 28 34 31 39 44 41 38 29 29 28 26 27 31 25 31 24 25 26 26 28 30 34 33 34 38 35 33 33 33 36 36 37 36 38 40
18 22 19 27 29 32 32 43 35 30 30 36 32 31 31 31 27 33 33 32 30 29 29 32 32 33 36 34 32 31 32 36 38 38 40 39 39 37
19 25 23 21 30 23 31 44 33 33 31 28 35 35 31 32 32 33 31 33 35 34 35 32 34 38 32 31 33 35 37 37 41 42 50 39 38 46
19 20 16 19 24 23 29 33 33 29 28 27 25 29 33 31 39 32 37 39 37 36 34 37 38 35 30 31 35 37 40 36 40 44 48 50 51 46
21 20 20 26 26 29 26 28 27 29 30 29 35 34 29 27 33 32 35 38 36 36 36 36 37 36 40 38 38 42 42 42 44 42 42 42 44 48
26 26 26 29 29 25 25 28 28 33 35 38 35 32 31 33 29 33 29 31 32 34 35 36 41 42 41 44 48 46 48 46 45 44 51 50 47 46
25 32 29 28 28 33 31 33 34 35 35 33 35 36 34 29 28 31 30 33 35 33 40 43 44 44 45 47 51 48 46 46 43 50 48 46 45 44
32 32 32 31 34 36 35 37 41 38 39 33 31 31 30 33 34 34 36 36 41 40 44 48 41 48 58 55 48 43 43 47 48 45 42 41 41 42
34 38 30 34 37 35 33 34 35 34 36 33 34 34 34 34 34 35 37 38 44 44 45 46 46 47 43 39 43 44 44 41 40 39 38 38 39 40
35 34 37 37 36 39 37 42 38 42 40 40 38 40 42 40 42 40 36 36 43 49 45 43 45 42 41 40 38 36 37 37 37 38 40 40 40 40
40 38 39 43 43 49 43 42 39 44 43 42 44 45 43 44 45 46 48 41 38 35 28 32 32 34 32 32 34 34 36 37 38 40 40 40 39 39
28 34 32 34 35 32 35 44 46 35 33 40 37 36 35 35 35 39 26 24 25 25 25 28 29 30 31 32 34 36 35 36 37 37 38 38 38 38
3 4 12 17 17 20 17 15 17 17 19 26 26 24 20 18 18 20 21 21 21 23 25 26 29 31 32 31 32 34 35 35 36 36 37 38 37 37
6 8 7 8 9 10 12 12 12 14 15 16 15 16 16 18 21 23 24 25 26 29 31 30 29 29 30 31 33 34 35 35 35 35 35 36 38 37
16 14 14 14 14 14 15 15 15 16 16 17 18 21 22 23 23 24 25 26 26 26 28 30 30 30 30 31 32 33 33 34 34 35 36 35 36 37
15 16 16 16 18 19 20 21 22 23 23 24 24 24 24 24 23 24 25 24 25 26 27 27 28 28 29 30 32 32 32 34 34 35 36 35 34 33
17 17 17 17 18 18 19 19 19 19 19 19 20 20 21 22 23 23 23 24 25 26 27 27 27 28 29 30 31 33 33 32 33 33 33 33 35 34
19 19 19 19 19 19 19 19 19 20 20 20 21 21 22 23 24 24 24 24 25 26 27 27 28 29 29 30 30 30 33 34 33 34 33 31 31 32
21 21 21 21 21 21 21 21 21 21 21 22 22 22 22 23 24 24 25 26 25 26 26 27 28 30 30 30 31 32 31 32 33 35 34 32 29 27
22 22 22 22 22 22 22 22 22 22 22 22 22 22 22 22 23 23 24 26 27 28 28 28 29 30 32 32 32 32 31 31 30 29 32 32 28 26

GFSNE_700_spd_114.txt.gz
Wind_Speed
32 30 30 28 39 38 35 38 34 38 40 35 37 28 39 35 30 27 26 26 26 28 30 30 29 28 28 29 30 29 29 30 32 35 37 35 31 35
31 31 29 27 39 44 36 35 35 38 37 36 34 36 42 37 32 31 29 28 27 28 29 29 28 28 30 31 31 33 32 32 35 38 38 37 33 33
31 29 29 25 31 25 24 31 33 36 38 36 38 35 30 41 40 36 34 31 30 30 29 31 29 30 32 31 33 33 35 36 37 36 35 33 31 33
30 29 24 23 30 28 27 25 31 35 37 39 40 39 29 41 33 36 37 36 36 36 39 37 35 37 37 37 36 38 38 37 39 37 36 33 34 35
29 28 24 23 24 27 26 27 28 34 36 34 38 35 29 32 46 46 43 45 41 41 39 37 35 37 33 36 35 37 34 35 35 35 35 35 39 42
28 27 23 18 24 23 25 26 28 29 42 41 35 32 35 31 30 28 33 29 35 33 37 38 33 34 35 36 34 38 37 35 34 35 38 38 41 37
29 27 22 22 23 20 24 28 24 27 35 36 30 29 40 37 33 30 30 36 31 34 31 34 38 37 35 33 38 39 37 35 37 35 37 41 39 44
30 28 23 22 26 21 22 25 20 26 37 36 28 28 31 30 34 32 33 35 39 33 37 41 41 37 32 37 37 33 34 38 44 44 44 40 44 48
34 30 28 23 24 24 20 24 25 24 34 39 30 27 30 30 32 33 29 33 36 32 36 41 42 36 36 39 39 38 39 40 43 42 45 49 47 44
34 31 29 25 27 28 28 29 30 31 29 29 32 32 31 34 34 28 32 34 33 36 35 37 34 37 39 41 42 41 42 41 47 48 51 45 39 45
33 33 30 32 33 29 31 34 33 32 32 35 34 32 38 34 39 37 33 31 35 39 39 40 42 43 43 41 42 43 45 44 52 53 43 45 43 37
34 32 32 34 32 35 36 36 36 38 42 36 34 34 35 29 33 35 34 35 38 42 44 41 38 43 43 48 43 42 44 41 38 38 38 37 36 35
41 40 38 39 38 39 36 37 38 41 36 40 37 37 36 39 36 39 43 42 42 48 44 43 44 45 46 46 42 40 39 34 34 33 34 34 35 35
33 34 37 39 43 42 41 39 37 41 47 43 42 43 43 41 44 45 47 47 44 39 38 41 40 42 40 38 34 32 30 30 32 33 34 34 35 36
12 16 18 22 27 39 43 40 40 41 40 39 40 44 43 46 44 46 42 44 43 42 39 39 34 28 26 27 28 27 28 29 31 33 34 35 34 35
6 5 6 9 12 14 14 15 19 23 26 27 29 31 30 30 31 33 32 29 28 27 25 23 22 24 25 25 25 28 30 32 34 34 33 33 34 34
9 9 8 8 7 10 10 11 14 15 16 17 19 20 22 23 23 24 21 19 16 18 21 23 25 27 28 29 29 32 33 34 33 32 32 34 35 34
17 17 16 15 15 13 12 11 12 12 13 14 15 16 17 18 18 19 21 22 22 23 23 24 25 27 28 29 29 29 30 30 31 32 32 31 33 36
16 17 18 18 18 18 19 19 19 18 18 18 18 19 19 20 22 23 23 23 23 23 23 24 25 26 26 28 28 27 28 29 30 31 32 32 31 31
19 18 17 17 17 18 18 17 17 18 18 18 19 19 19 19 19 19 20 20 21 22 23 24 24 24 25 26 27 28 28 29 30 31 30 31 32 32
22 21 20 19 18 17 18 18 19 18 19 19 19 19 20 20 20 21 21 22 22 23 23 24 24 25 25 25 26 27 28 29 31 31 30 30 30 32
24 23 23 22 22 21 20 20 20 20 20 20 20 21 22 22 22 22 23 23 22 22 23 23 23 23 24 25 26 27 28 29 31 34 34 32 31 29
24 24 24 23 23 22 22 21 21 21 21 21 21 21 22 22 22 22 22 22 22 22 22 23 24 25 26 26 27 28 29 30 30 31 35 33 30 28

GFSNE_700_spd_117.txt.gz
Wind_Speed
35 35 34 32 31 30 31 31 33 32 37 32 30 35 33 38 35 40 33 34 34 33 33 32 33 34 33 32 32 32 30 30 31 31 32 33 33 33
35 36 34 33 31 30 31 34 32 37 41 38 30 31 33 36 35 41 36 35 35 32 33 33 34 34 33 33 34 32 32 33 33 33 34 32 34 36
37 37 35 34 32 30 29 29 29 32 34 32 37 32 31 41 32 42 38 37 37 34 32 32 35 34 33 33 34 33 34 33 33 35 35 34 35 34
36 37 35 34 32 29 28 28 30 26 30 28 27 31 35 39 38 33 45 39 38 37 38 42 37 35 34 31 39 37 33 33 35 36 38 38 37 37
36 39 37 34 33 28 29 31 29 32 28 27 30 32 27 37 37 37 42 49 45 42 43 41 38 37 37 39 44 40 39 41 38 36 35 35 36 36
41 40 38 35 33 28 26 23 25 28 30 24 31 35 36 31 39 39 42 48 46 44 42 42 39 43 45 48 38 39 37 37 37 39 39 37 37 38
44 42 39 35 32 28 28 25 23 24 23 27 31 37 40 39 40 33 33 42 38 39 41 48 47 43 45 41 39 39 42 41 39 38 41 39 40 36
42 41 38 36 32 29 29 27 27 22 27 26 28 26 39 38 32 36 34 37 40 37 41 34 37 36 39 42 43 41 39 35 36 35 34 39 45 44
42 39 37 36 33 32 30 32 29 25 26 25 26 32 36 29 28 35 41 40 39 39 37 37 40 35 41 41 46 46 41 35 38 40 39 42 43 44
42 44 35 36 32 34 33 30 28 25 25 26 26 28 38 31 28 30 32 36 37 36 37 38 42 43 39 49 50 44 38 40 38 41 40 44 42 45
37 33 38 38 33 37 35 31 30 30 29 29 29 32 30 33 35 34 38 41 43 44 42 38 39 39 41 43 43 42 40 40 41 42 42 45 46 45
39 38 37 42 37 32 35 39 36 36 35 39 34 37 38 37 38 35 37 40 35 43 44 44 42 48 44 46 48 46 46 44 47 46 47 42 40 36
37 35 34 34 38 33 38 37 41 38 38 39 39 40 44 41 34 35 40 41 38 43 43 45 44 46 48 50 50 50 49 47 48 46 42 40 36 33
20 29 33 35 39 40 43 39 43 44 42 45 43 46 42 45 40 41 44 40 42 43 47 49 51 51 49 51 47 43 39 36 34 34 32 27 27 32
9 11 14 18 23 27 34 42 45 46 47 45 48 45 43 45 42 42 50 48 44 47 48 52 51 44 41 37 32 31 33 32 30 26 24 26 28 29
9 9 8 9 11 13 14 17 19 20 25 27 27 30 29 30 39 42 42 41 48 44 43 39 37 33 31 30 28 27 26 22 22 25 29 30 30 32
17 15 13 11 10 9 10 11 12 13 14 15 16 17 19 19 20 22 24 25 26 27 28 27 26 27 27 26 25 24 25 27 29 29 30 31 32 32
17 17 16 16 16 16 14 12 13 12 12 13 14 15 15 16 16 16 17 18 19 19 20 20 20 20 21 21 23 23 24 25 27 30 30 30 30 29
18 18 18 18 17 17 18 19 19 19 19 18 18 18 18 18 18 17 17 18 19 20 20 21 21 21 21 21 22 24 26 27 28 28 27 27 28 29
21 20 19 18 19 19 18 18 18 18 19 20 20 20 21 21 21 21 21 20 20 20 20 21 21 21 22 23 24 25 27 27 27 27 26 27 27 27
23 23 22 21 20 20 20 20 20 19 19 19 19 20 19 19 19 19 20 20 19 19 19 20 21 22 23 24 25 25 25 26 26 25 25 24 26 28
23 23 23 23 22 21 21 21 21 21 21 21 22 21 21 21 20 20 20 20 20 21 21 21 21 22 22 23 23 23 24 26 27 28 27 27 26 27
23 22 22 22 23 22 21 21 20 20 20 21 21 21 21 21 21 22 21 21 21 20 20 20 20 21 21 22 22 23 24 26 27 30 30 28 27 25